When you browse on this site, cookies collect data to enhance your experience and personalize the content and advertising you see.
Visit our Privacy Policy to learn more. By continuing to use the site, you agree to this use of cookies and data.
  • en France
  • Liste des pays
  • À 7 jours
  • Température de l'eau
  • Carte satellitaire
  • Carte météo
  • Widgets météo
  • user-avatar
    Se connecter

    Météo par heure à Santa Cruz

    Ce jour, 27 Mai, Lundi

    Heure Température Précipitation Vent Pression Humidité
    00:00 +26°C° 0 mm 6 m/s 720 mmHg 73%
    01:00 +26°C° 0 mm 6 m/s 720 mmHg 75%
    02:00 +24°C° 0 mm 6 m/s 720 mmHg 78%
    03:00 +25°C° 0 mm 5 m/s 720 mmHg 79%
    04:00 +25°C° 0 mm 5 m/s 720 mmHg 81%
    05:00 +25°C° 0 mm 5 m/s 720 mmHg 82%
    06:00 +25°C° 0 mm 5 m/s 720 mmHg 83%
    07:00 +25°C° 0 mm 5 m/s 721 mmHg 83%
    08:00 +25°C° 0 mm 5 m/s 721 mmHg 84%
    09:00 +25°C° 0.1 mm 5 m/s 721 mmHg 81%
    10:00 +26°C° 0.1 mm 5 m/s 722 mmHg 78%
    11:00 +27°C° 0.1 mm 5 m/s 722 mmHg 75%
    12:00 +28°C° 0 mm 6 m/s 721 mmHg 70%
    13:00 +29°C° 0 mm 6 m/s 720 mmHg 66%
    14:00 +30°C° 0 mm 6 m/s 720 mmHg 62%
    15:00 +30°C° 0 mm 5 m/s 719 mmHg 63%
    16:00 +29°C° 0 mm 5 m/s 719 mmHg 64%
    17:00 +29°C° 0 mm 4 m/s 719 mmHg 65%
    18:00 +29°C° 0 mm 4 m/s 719 mmHg 67%
    19:00 +28°C° 0 mm 4 m/s 720 mmHg 68%
    20:00 +27°C° 0 mm 4 m/s 720 mmHg 69%
    21:00 +27°C° 0 mm 4 m/s 720 mmHg 71%
    22:00 +27°C° 0 mm 4 m/s 721 mmHg 73%
    23:00 +26°C° 0 mm 4 m/s 721 mmHg 74%

    Demain, 28 Mai, Mardi

    Heure Température Précipitation Vent Pression Humidité
    00:00 +26°C° 0 mm 4 m/s 721 mmHg 76%
    01:00 +26°C° 0 mm 4 m/s 721 mmHg 78%
    02:00 +25°C° 0 mm 4 m/s 721 mmHg 80%
    03:00 +25°C° 0 mm 4 m/s 721 mmHg 81%
    04:00 +25°C° 0 mm 4 m/s 721 mmHg 82%
    05:00 +25°C° 0 mm 4 m/s 721 mmHg 84%
    06:00 +25°C° 0 mm 4 m/s 721 mmHg 82%
    07:00 +25°C° 0 mm 4 m/s 722 mmHg 81%
    08:00 +26°C° 0 mm 4 m/s 722 mmHg 80%
    09:00 +27°C° 0 mm 5 m/s 722 mmHg 75%
    10:00 +28°C° 0 mm 5 m/s 723 mmHg 69%
    11:00 +30°C° 0 mm 5 m/s 723 mmHg 63%
    12:00 +30°C° 0 mm 5 m/s 722 mmHg 62%
    13:00 +32°C° 0 mm 5 m/s 721 mmHg 60%
    14:00 +32°C° 0 mm 5 m/s 720 mmHg 58%
    15:00 +32°C° 0 mm 4 m/s 720 mmHg 61%
    16:00 +30°C° 0 mm 3 m/s 720 mmHg 63%
    17:00 +30°C° 0 mm 2 m/s 720 mmHg 65%
    18:00 +29°C° 0 mm 2 m/s 720 mmHg 69%
    19:00 +28°C° 0 mm 2 m/s 721 mmHg 73%
    20:00 +27°C° 0 mm 1 m/s 721 mmHg 77%
    21:00 +26°C° 0 mm 1 m/s 722 mmHg 80%
    22:00 +26°C° 0 mm 1 m/s 722 mmHg 82%
    23:00 +25°C° 0 mm 1 m/s 723 mmHg 85%

    Après-demain, 29 Mai, Mercredi

    Heure Température Précipitation Vent Pression Humidité
    00:00 +25°C° 0.1 mm 1 m/s 722 mmHg 87%
    01:00 +24°C° 0.1 mm 1 m/s 722 mmHg 90%
    02:00 +24°C° 0.1 mm 1 m/s 722 mmHg 93%
    03:00 +23°C° 0.1 mm 2 m/s 722 mmHg 93%
    04:00 +23°C° 0.1 mm 2 m/s 722 mmHg 94%
    05:00 +21°C° 0.1 mm 2 m/s 722 mmHg 95%
    06:00 +22°C° 0.2 mm 1 m/s 722 mmHg 95%
    07:00 +22°C° 0.2 mm 1 m/s 723 mmHg 95%
    08:00 +22°C° 0.2 mm 1 m/s 723 mmHg 96%
    09:00 +23°C° 0.1 mm 1 m/s 723 mmHg 92%
    10:00 +22°C° 0.1 mm 0 m/s 723 mmHg 89%
    11:00 +23°C° 0.1 mm 0 m/s 723 mmHg 86%
    12:00 +27°C° 0.1 mm 1 m/s 722 mmHg 81%
    13:00 +28°C° 0.1 mm 2 m/s 721 mmHg 76%
    14:00 +29°C° 0.1 mm 4 m/s 720 mmHg 71%
    15:00 +29°C° 0.1 mm 4 m/s 720 mmHg 70%
    16:00 +29°C° 0.1 mm 4 m/s 719 mmHg 70%
    17:00 +29°C° 0.1 mm 4 m/s 719 mmHg 69%
    18:00 +28°C° 0 mm 4 m/s 719 mmHg 71%
    19:00 +28°C° 0 mm 4 m/s 719 mmHg 72%
    20:00 +27°C° 0 mm 4 m/s 720 mmHg 73%
    21:00 +27°C° 0 mm 4 m/s 720 mmHg 73%
    22:00 +27°C° 0 mm 4 m/s 720 mmHg 72%
    23:00 +27°C° 0 mm 5 m/s 720 mmHg 72%

    30 Mai, Jeudi

    Heure Température Précipitation Vent Pression Humidité
    00:00 +27°C° 0 mm 5 m/s 720 mmHg 73%
    01:00 +27°C° 0 mm 5 m/s 720 mmHg 74%
    02:00 +27°C° 0 mm 5 m/s 719 mmHg 74%
    03:00 +26°C° 0 mm 5 m/s 719 mmHg 76%
    04:00 +26°C° 0 mm 5 m/s 719 mmHg 77%
    05:00 +26°C° 0 mm 5 m/s 719 mmHg 78%
    06:00 +26°C° 0 mm 5 m/s 720 mmHg 77%
    07:00 +26°C° 0 mm 6 m/s 720 mmHg 77%
    08:00 +27°C° 0 mm 6 m/s 721 mmHg 76%
    09:00 +28°C° 0 mm 6 m/s 721 mmHg 70%
    10:00 +29°C° 0 mm 6 m/s 721 mmHg 65%
    11:00 +32°C° 0 mm 7 m/s 721 mmHg 59%
    12:00 +32°C° 0 mm 7 m/s 720 mmHg 57%
    13:00 +33°C° 0 mm 7 m/s 719 mmHg 55%
    14:00 +34°C° 0 mm 7 m/s 718 mmHg 52%
    15:00 +33°C° 0 mm 6 m/s 718 mmHg 55%
    16:00 +33°C° 0 mm 5 m/s 718 mmHg 57%
    17:00 +32°C° 0 mm 4 m/s 718 mmHg 59%
    18:00 +30°C° 0 mm 3 m/s 718 mmHg 62%
    19:00 +29°C° 0 mm 3 m/s 719 mmHg 64%
    20:00 +28°C° 0 mm 3 m/s 720 mmHg 67%
    21:00 +27°C° 0 mm 2 m/s 720 mmHg 70%
    22:00 +26°C° 0 mm 2 m/s 720 mmHg 74%
    23:00 +26°C° 0 mm 2 m/s 721 mmHg 77%

    31 Mai, Vendredi

    Heure Température Précipitation Vent Pression Humidité
    00:00 +26°C° 0 mm 1 m/s 721 mmHg 78%
    01:00 +26°C° 0 mm 1 m/s 721 mmHg 79%
    02:00 +26°C° 0 mm 1 m/s 721 mmHg 81%
    03:00 +25°C° 0.2 mm 2 m/s 721 mmHg 84%
    04:00 +24°C° 0.2 mm 2 m/s 721 mmHg 88%
    05:00 +22°C° 0.2 mm 3 m/s 721 mmHg 91%
    06:00 +23°C° 0.2 mm 2 m/s 721 mmHg 92%
    07:00 +21°C° 0.2 mm 2 m/s 722 mmHg 92%
    08:00 +21°C° 0.2 mm 2 m/s 722 mmHg 93%
    09:00 +21°C° 0.1 mm 2 m/s 723 mmHg 91%
    10:00 +21°C° 0.1 mm 2 m/s 723 mmHg 90%
    11:00 +21°C° 0.1 mm 2 m/s 723 mmHg 89%
    12:00 +24°C° 0 mm 1 m/s 722 mmHg 83%
    13:00 +26°C° 0 mm 1 m/s 721 mmHg 77%
    14:00 +26°C° 0 mm 0 m/s 720 mmHg 71%
    15:00 +27°C° 0.1 mm 1 m/s 720 mmHg 74%
    16:00 +27°C° 0.1 mm 1 m/s 719 mmHg 77%
    17:00 +27°C° 0.1 mm 1 m/s 719 mmHg 80%
    18:00 +26°C° 0 mm 1 m/s 719 mmHg 84%
    19:00 +25°C° 0 mm 2 m/s 719 mmHg 88%
    20:00 +24°C° 0 mm 2 m/s 720 mmHg 91%
    21:00 +24°C° 0 mm 2 m/s 720 mmHg 91%
    22:00 +24°C° 0 mm 2 m/s 720 mmHg 91%
    23:00 +24°C° 0 mm 2 m/s 720 mmHg 91%

    1 Juin, Samedi

    Heure Température Précipitation Vent Pression Humidité
    00:00 +24°C° 0 mm 2 m/s 720 mmHg 92%
    01:00 +23°C° 0 mm 2 m/s 720 mmHg 93%
    02:00 +23°C° 0 mm 2 m/s 719 mmHg 93%
    03:00 +23°C° 0.1 mm 2 m/s 719 mmHg 93%
    04:00 +23°C° 0.1 mm 2 m/s 720 mmHg 93%
    05:00 +24°C° 0.1 mm 3 m/s 720 mmHg 93%
    06:00 +24°C° 0 mm 3 m/s 720 mmHg 92%
    07:00 +24°C° 0 mm 3 m/s 721 mmHg 90%
    08:00 +24°C° 0 mm 3 m/s 721 mmHg 89%
    09:00 +25°C° 0 mm 3 m/s 721 mmHg 83%
    10:00 +27°C° 0 mm 4 m/s 722 mmHg 78%
    11:00 +28°C° 0 mm 4 m/s 722 mmHg 73%
    12:00 +29°C° 0.1 mm 4 m/s 722 mmHg 69%
    13:00 +30°C° 0.1 mm 3 m/s 721 mmHg 65%
    14:00 +30°C° 0.1 mm 3 m/s 721 mmHg 61%
    15:00 +28°C° 1.9 mm 4 m/s 721 mmHg 71%
    16:00 +26°C° 1.9 mm 4 m/s 721 mmHg 81%
    17:00 +22°C° 1.9 mm 5 m/s 721 mmHg 91%
    18:00 +21°C° 0.4 mm 5 m/s 722 mmHg 91%
    19:00 +20°C° 0.4 mm 5 m/s 723 mmHg 91%
    20:00 +19°C° 0.4 mm 5 m/s 724 mmHg 92%
    21:00 +19°C° 0.8 mm 5 m/s 724 mmHg 92%
    22:00 +19°C° 0.8 mm 5 m/s 724 mmHg 92%
    23:00 +19°C° 0.8 mm 5 m/s 725 mmHg 92%
    Voir plus